This is the latest recevied weather packets stored in our database for station/object KE8WMS. If no packets are shown the sender has not sent any weather packets the latest 10 day(s).
| Time | Temp. | Humidity | Pressure | Rain* | Wind** | Luminosity | Snow |
|---|---|---|---|---|---|---|---|
| 1777912578 | 21.67° C | 49% | 1003.3 hPa | 0 mm | - | 754 W/m² | - |
| 1777912275 | 21.67° C | 49% | 1003.3 hPa | 0 mm | - | 752 W/m² | - |
| 1777911971 | 21.67° C | 50% | 1003.3 hPa | 0 mm | - | 747 W/m² | - |
| 1777911667 | 21.11° C | 48% | 1003.4 hPa | 0 mm | - | 743 W/m² | - |
| 1777911363 | 21.11° C | 49% | 1003.4 hPa | 0 mm | - | 739 W/m² | - |
| 1777911061 | 21.11° C | 50% | 1003.6 hPa | 0 mm | - | 734 W/m² | - |
| 1777910758 | 21.11° C | 52% | 1003.5 hPa | 0 mm | - | 730 W/m² | - |
| 1777910455 | 21.11° C | 49% | 1003.5 hPa | 0 mm | - | 724 W/m² | - |
| 1777910151 | 21.11° C | 51% | 1003.5 hPa | 0 mm | - | 719 W/m² | - |
| 1777909849 | 20.56° C | 54% | 1003.7 hPa | 0 mm | - | 712 W/m² | - |
| 1777909545 | 20.56° C | 52% | 1003.7 hPa | 0 mm | - | 706 W/m² | - |
| 1777909243 | 20° C | 54% | 1003.9 hPa | 0 mm | - | 700 W/m² | - |
| 1777908941 | 20° C | 53% | 1003.9 hPa | 0 mm | - | 694 W/m² | - |
| 1777908639 | 19.44° C | 55% | 1003.8 hPa | 0 mm | - | 685 W/m² | - |
| 1777908335 | 20° C | 55% | 1003.9 hPa | 0 mm | - | 674 W/m² | - |
| 1777908032 | 20° C | 55% | 1003.9 hPa | 0 mm | - | 668 W/m² | - |
| 1777907728 | 20° C | 53% | 1004.1 hPa | 0 mm | - | 660 W/m² | - |
| 1777907427 | 20° C | 56% | 1004.2 hPa | 0 mm | - | 652 W/m² | - |
| 1777907125 | 19.44° C | 55% | 1004 hPa | 0 mm | - | 643 W/m² | - |
| 1777906823 | 19.44° C | 55% | 1004 hPa | 0 mm | - | 632 W/m² | - |
| 1777906520 | 18.89° C | 57% | 1004.2 hPa | 0 mm | - | 624 W/m² | - |
| 1777906215 | 18.89° C | 53% | 1004.1 hPa | 0 mm | - | 612 W/m² | - |
| 1777905912 | 18.33° C | 56% | 1003.9 hPa | 0 mm | - | 602 W/m² | - |
| 1777905609 | 18.33° C | 57% | 1004.1 hPa | 0 mm | - | 588 W/m² | - |
| 1777905306 | 18.33° C | 55% | 1004.3 hPa | 0 mm | - | 575 W/m² | - |
* Rain latest hour (hover to see other rain measurements)
** Current wind speed in m/s (hover to see current wind gust speed)